User: anonymous   Login
Location: Unspecified
(0.0000°N, 0.0000°E)
Time: 07:45:46
(UTC+02:00)
Language:

ARIANE 5 R/B - Orbit

View from above orbital plane
View from above orbital plane
View from above satellite
View from above satellite

Ground track
Ground track

The orbit data is extracted from the following two-line orbital elements,

1 27387U 02009B   15142.81053882  .00000062  00000-0  36024-4 0  9993
2 27387 098.3627 099.4124 0031414 233.3077 183.0385 14.35840284693006
Epoch (UTC): 22 May 2015 19:27:10
Eccentricity: 0.0031414
inclination: 98.3627°
perigee height: 750 km
apogee height: 795 km
right ascension of ascending node: 99.4124°
argument of perigee: 233.3077°
revolutions per day: 14.35840284
mean anomaly at epoch: 183.0385°
orbit number at epoch: 69300

The dashed part of the orbit path shows where the satellite is in the earth's shadow,  

DLR